Wind_Speed
36 36 36 36 37 38 38 39 38 37 37 36 36 36 36 36 37 39 40 40 39 39 37 36 37 39 41 42 42 40 38 36 37 39 40 42 42 41 41 43 44 45 45 45 45 44 43 42 41 42 43 44 44 44 44 43 42 43 44 46 49 52 54 56 58 60 61 62 62 63 63 63 63 64
36 36 37 37 38 39 39 40 40 40 40 39 39 38 38 37 38 40 41 41 42 41 40 40 40 42 44 44 43 41 40 39 39 41 43 45 44 42 44 46 45 44 44 43 42 41 41 40 40 41 43 46 46 43 40 39 40 42 43 45 48 51 54 55 57 58 60 62 63 65 66 67 67 68
38 38 38 39 39 39 39 40 41 42 41 40 40 40 39 39 39 41 41 42 42 42 42 42 43 45 47 46 43 42 41 41 43 45 47 47 45 45 47 45 41 39 38 37 37 37 37 37 38 39 42 45 43 38 36 38 40 43 45 46 48 51 54 56 57 58 60 61 63 64 65 67 68 69
40 41 41 41 41 41 40 41 42 42 41 41 41 41 40 40 40 41 42 42 43 43 44 45 47 49 50 48 45 44 44 45 48 48 46 45 44 46 43 37 34 33 32 31 32 33 32 31 31 34 37 39 37 36 37 41 43 45 47 49 50 51 53 54 56 57 59 61 63 64 66 67 68 69
38 40 41 41 41 41 41 41 42 42 41 41 41 41 41 41 41 42 42 43 44 45 46 48 50 50 49 47 46 46 48 49 49 46 43 43 44 41 35 31 32 32 31 31 29 28 28 27 27 29 31 33 36 40 44 45 45 45 46 47 49 51 53 54 55 57 58 60 61 62 64 67 68 70
36 38 38 39 39 39 40 40 41 41 41 41 41 41 42 42 43 44 44 45 46 48 50 51 50 49 47 46 47 49 51 50 48 43 40 41 40 34 30 31 33 35 36 34 30 28 28 28 28 29 31 35 41 46 48 47 45 43 43 44 46 48 50 52 55 57 59 60 62 63 64 65 67 69
37 37 37 38 38 39 40 41 41 41 41 42 42 42 43 44 45 46 47 48 50 52 52 51 49 48 47 48 50 52 52 49 46 43 41 40 38 34 32 33 35 38 40 37 33 31 31 31 32 34 37 40 44 47 48 46 45 43 42 42 43 45 46 48 50 53 56 59 62 64 66 67 69 70
38 38 38 39 40 41 42 43 44 43 43 43 43 44 45 47 48 50 51 52 52 52 51 49 49 48 49 51 52 51 49 47 45 43 41 41 40 38 37 38 39 41 42 40 37 34 33 34 35 37 40 42 44 46 47 46 45 45 45 44 44 45 46 46 47 48 51 55 59 62 64 67 70 72
40 41 41 42 43 43 44 45 46 46 45 45 45 46 48 50 51 53 53 54 53 51 50 50 50 50 50 51 50 48 46 45 44 43 42 43 43 42 42 43 44 43 44 44 42 41 40 39 39 40 42 43 45 46 46 47 47 47 48 48 47 46 46 47 48 48 49 51 54 57 60 62 66 69
41 42 44 44 44 45 46 47 47 47 47 47 48 49 51 52 53 54 54 54 53 52 52 52 52 52 51 49 46 45 45 45 44 43 44 44 45 46 46 46 47 47 46 46 47 47 47 46 45 45 46 46 47 48 48 49 49 51 52 52 52 51 49 49 49 50 50 50 52 54 55 57 59 63
42 43 44 44 44 45 46 48 49 49 49 49 50 51 52 53 53 54 54 54 54 53 53 53 53 53 51 47 46 46 45 45 45 45 45 45 47 49 49 48 48 48 48 48 49 50 51 52 51 51 51 52 52 52 52 53 54 55 56 56 56 56 54 53 52 51 51 51 52 53 54 55 55 57
42 43 44 45 45 45 46 48 50 51 52 52 52 53 53 54 54 54 54 54 55 55 55 54 53 51 49 48 48 48 46 46 46 46 46 47 48 50 51 50 49 48 48 48 50 52 54 55 56 56 56 56 56 57 57 59 60 60 60 60 60 60 59 57 55 54 53 53 53 53 54 54 55 55
42 42 43 44 45 46 46 47 49 50 52 52 53 54 55 55 55 55 56 56 57 57 57 55 53 50 49 50 51 50 49 47 46 46 46 47 48 49 50 50 49 48 48 49 51 54 56 58 60 60 60 60 61 62 63 64 65 65 65 65 65 64 63 61 58 56 56 56 56 56 56 56 56 56
43 42 43 44 45 46 47 47 48 49 51 53 54 56 57 58 58 58 59 60 61 60 59 57 54 52 52 54 55 54 52 50 49 48 48 47 48 49 49 50 51 50 51 52 54 56 59 61 63 64 65 66 67 67 68 69 69 70 71 71 71 69 67 64 61 59 57 58 58 58 58 58 58 58
45 44 43 43 44 45 46 47 47 47 49 51 54 56 58 60 61 61 61 61 61 59 58 56 55 55 57 58 58 57 55 54 53 52 52 51 52 52 53 54 54 55 55 56 58 60 62 65 66 68 70 71 72 72 73 73 74 75 77 77 75 73 70 67 64 61 59 59 59 59 59 59 59 60
46 45 44 43 43 43 44 45 46 47 48 50 52 55 57 59 59 59 58 57 56 56 56 56 58 59 61 61 61 60 59 59 58 57 57 57 57 57 57 58 59 60 61 61 63 65 67 69 70 72 74 76 77 77 77 77 78 80 81 81 79 76 73 70 67 64 62 61 60 59 59 59 60 60
47 46 46 45 45 45 45 46 47 48 50 51 53 54 55 55 55 55 54 54 55 56 58 60 61 63 64 65 66 66 66 65 64 63 62 62 62 62 62 63 63 65 66 67 68 70 72 74 75 76 78 80 80 81 81 81 83 85 85 83 80 78 74 71 69 67 65 63 61 60 60 60 60 60
50 49 48 48 47 47 48 48 50 51 53 53 54 54 55 55 55 56 56 58 60 62 64 65 66 67 68 69 69 70 70 70 69 68 67 67 67 67 67 68 68 69 70 71 72 74 76 77 79 80 82 83 84 84 85 86 87 89 87 84 81 78 75 72 70 68 66 65 64 63 62 61 60 61
53 52 51 50 50 50 50 51 52 53 54 55 55 55 56 57 58 60 63 65 67 69 70 70 70 70 71 72 72 72 73 73 72 72 71 70 70 70 71 72 72 73 74 75 76 77 79 81 82 84 86 87 88 88 89 90 91 89 86 82 79 77 74 72 71 69 68 67 66 65 64 63 62 62
56 54 53 53 53 54 54 54 54 55 55 55 55 56 57 58 59 63 68 72 73 74 74 74 74 73 74 75 76 76 77 76 75 75 74 74 74 75 75 76 77 78 78 79 81 82 83 85 87 88 90 91 92 92 92 91 90 86 82 79 76 74 73 72 71 70 70 69 68 67 66 66 65 64
57 56 55 56 57 57 58 57 57 56 55 55 57 58 60 62 65 69 73 76 77 78 78 78 77 76 76 77 79 80 81 79 79 78 78 79 79 80 81 81 82 82 83 85 87 88 89 90 91 91 92 93 93 93 92 90 87 84 80 77 74 72 71 71 71 71 70 70 69 69 68 68 67 66
60 60 60 61 62 63 63 63 62 61 61 62 63 66 68 71 74 77 79 80 81 82 83 82 81 81 80 81 83 84 82 81 81 82 82 83 83 84 86 86 87 88 89 90 91 91 92 92 92 91 91 91 92 92 91 90 88 86 82 78 75 72 71 71 71 71 71 71 71 71 71 70 69 68
66 66 67 68 69 70 71 71 71 71 71 73 75 77 79 81 82 83 85 86 86 87 87 87 87 87 87 87 87 85 82 81 81 82 83 85 86 87 88 89 90 91 91 92 92 91 91 92 91 91 90 90 91 92 92 92 91 89 84 79 76 74 73 71 70 70 70 71 73 73 73 71 70 68
71 73 74 75 76 77 77 78 79 79 80 81 83 84 85 86 86 87 89 90 91 92 92 92 92 92 91 89 86 82 80 80 80 81 82 83 84 85 86 87 88 89 89 90 90 90 91 92 92 92 92 91 91 93 94 94 93 91 86 82 80 79 76 73 71 70 71 72 73 73 72 71 69 67
79 81 81 82 83 84 84 84 85 87 88 89 90 91 91 92 93 93 93 93 93 93 93 92 91 89 88 86 83 81 79 79 79 80 81 82 83 84 85 86 87 88 89 90 90 91 92 93 94 94 94 94 94 94 95 95 94 91 88 86 86 84 80 76 73 71 71 71 71 70 69 68 67 66
86 87 88 89 89 89 89 90 91 92 93 94 96 96 96 96 96 95 94 93 91 90 89 88 86 85 84 83 82 81 81 80 80 81 82 83 84 85 86 87 88 89 90 91 92 93 94 95 95 95 95 96 96 95 94 94 94 91 87 86 85 83 79 74 71 69 68 68 68 67 66 65 64 63
89 91 93 94 93 93 93 93 94 95 96 97 97 97 97 96 95 94 93 92 90 88 87 86 85 84 84 83 83 83 82 82 83 83 84 85 86 86 88 89 90 90 91 93 94 95 95 96 96 97 97 97 96 94 93 91 90 88 84 81 79 76 71 67 64 63 62 63 64 63 63 62 61 60
92 95 97 98 97 96 96 96 97 97 97 97 96 95 95 95 95 94 94 92 91 90 88 87 87 87 86 86 85 85 84 85 86 87 87 87 88 89 90 91 92 93 94 95 96 96 97 98 99 99 99 97 94 91 89 87 86 83 79 75 71 67 63 60 58 57 58 59 60 59 59 58 57 56
94 96 99 100 99 98 97 97 97 97 96 96 95 95 95 95 95 95 95 94 94 93 92 92 92 91 90 88 87 87 87 88 89 90 90 90 91 92 93 93 94 95 96 96 97 98 99 100 100 100 97 94 90 87 84 83 82 79 74 70 67 63 59 57 56 55 55 55 55 54 53 53 54 54
95 96 97 98 98 97 97 96 97 97 97 97 97 97 97 97 97 97 97 97 97 96 97 97 97 96 94 92 91 91 91 92 92 92 92 92 93 93 94 94 95 96 96 96 96 98 100 101 100 97 94 91 88 85 82 80 79 76 71 67 64 62 59 57 55 53 52 51 50 48 48 49 50 50
96 96 96 96 96 97 97 97 98 99 99 100 100 100 100 99 99 99 100 99 100 100 101 102 101 99 97 96 95 94 94 94 94 93 93 93 93 93 92 92 93 93 93 93 95 97 99 99 97 94 91 88 86 83 81 78 76 75 71 66 62 59 57 56 54 51 49 48 46 43 43 45 46 46
97 97 97 96 97 97 98 98 100 101 102 103 103 102 102 102 102 102 102 102 103 104 104 104 102 100 99 97 95 94 93 92 90 90 89 89 88 87 87 87 87 87 88 90 93 96 97 96 94 91 88 86 83 80 78 76 73 71 68 63 58 55 54 53 52 49 47 45 43 40 40 41 42 42
100 100 99 99 99 99 99 101 102 104 104 105 105 104 104 104 104 104 104 104 104 104 102 100 98 96 93 91 89 86 84 82 80 79 79 79 79 78 79 79 80 81 84 87 90 92 93 92 90 87 84 81 78 75 74 72 71 68 64 59 54 51 51 51 49 47 45 43 40 38 38 38 39 39
103 103 103 102 101 102 103 103 104 105 107 107 107 107 107 107 106 105 104 104 103 101 97 94 91 88 86 83 80 77 75 73 71 70 69 68 68 69 71 72 73 76 78 81 84 86 87 86 85 83 79 76 73 70 68 66 66 64 60 54 50 48 48 48 46 45 43 42 39 36 36 36 36 36
105 106 106 106 105 105 106 106 106 107 108 109 110 110 109 109 108 107 106 105 103 101 98 95 91 86 83 80 77 73 70 68 66 63 61 60 60 62 63 65 68 70 73 76 78 79 79 79 79 77 74 70 67 63 61 59 60 60 57 52 47 45 45 45 44 42 41 39 37 35 34 33 33 34
107 108 109 109 109 108 108 108 108 108 108 109 110 110 110 109 108 107 107 106 105 103 100 98 94 89 84 81 78 74 70 66 63 60 58 56 57 58 60 61 63 66 68 70 72 73 72 72 71 70 68 65 61 57 54 53 54 55 53 50 46 43 43 43 42 40 38 36 35 33 32 31 30 31
109 109 110 109 109 110 110 110 109 108 107 108 108 108 108 108 106 105 104 104 103 102 100 98 95 91 86 83 79 74 69 65 61 58 56 56 56 57 58 59 61 62 64 66 67 67 66 66 65 64 62 59 56 53 49 48 49 49 49 47 44 42 41 40 40 38 36 34 32 31 30 29 28 28
108 108 108 108 108 108 108 108 107 106 106 105 105 105 104 104 103 102 101 100 99 98 97 95 92 89 86 82 78 73 68 64 60 57 56 55 55 55 56 56 58 59 61 62 62 62 60 59 59 58 56 54 52 49 46 44 44 45 45 44 42 40 39 38 37 35 34 32 30 29 28 27 26 26
102 103 103 104 105 105 105 105 104 103 102 102 101 100 99 98 97 97 96 96 95 95 94 91 89 87 84 81 77 74 69 64 60 58 57 56 54 53 52 53 54 56 58 59 59 57 55 53 53 53 51 49 47 45 43 42 41 42 42 41 40 38 37 35 34 32 31 30 28 27 26 25 25 24
95 96 97 97 98 100 101 100 99 98 97 97 96 94 93 92 92 91 92 92 92 92 90 88 85 83 81 79 76 73 70 66 63 60 58 56 53 51 50 51 53 55 57 57 55 52 50 49 50 49 48 45 43 41 41 41 40 39 39 39 38 36 34 32 31 30 29 27 26 25 25 24 23 23
91 91 91 91 91 93 94 94 94 94 94 93 92 90 88 88 88 88 89 90 90 88 86 84 82 80 78 76 73 70 68 66 64 61 58 54 52 51 52 53 55 56 56 55 51 48 47 47 48 47 45 42 40 39 39 39 38 37 36 36 35 33 31 30 30 28 27 25 24 24 23 23 23 22
88 86 85 85 86 87 88 89 89 90 90 89 88 86 85 85 85 85 86 87 85 83 81 80 78 77 75 73 70 68 66 64 62 60 57 55 54 54 55 57 57 56 54 53 49 46 45 46 46 44 42 40 38 37 37 37 36 35 34 34 32 30 29 29 28 27 25 24 23 22 21 21 21 21
83 82 80 80 81 83 84 84 85 85 85 85 84 83 83 83 83 83 84 83 81 78 77 75 74 73 72 70 67 66 65 64 63 61 59 57 56 56 57 58 57 54 53 51 47 44 44 46 44 41 39 37 36 36 36 35 34 33 32 31 30 29 28 27 27 25 24 23 22 21 20 20 20 20
78 77 75 74 75 77 79 80 80 80 80 80 80 80 80 80 80 80 80 78 76 75 73 72 70 70 69 67 65 64 64 63 62 60 58 57 57 57 57 56 54 51 50 48 45 43 44 44 42 39 37 36 34 34 34 34 32 31 30 29 28 27 26 26 25 24 23 22 21 21 20 19 19 19
71 72 71 70 70 71 73 74 75 76 75 75 76 76 76 77 77 76 74 73 71 70 69 68 67 67 66 64 62 61 60 58 56 56 56 56 55 54 53 52 50 48 46 45 43 43 43 42 40 37 35 34 33 33 33 32 31 29 28 27 26 26 25 25 24 23 22 21 21 21 20 20 19 19
Wind_Direction
268 267 267 267 265 265 265 266 269 273 273 272 272 272 273 274 275 276 276 275 275 275 276 277 280 283 286 288 290 292 290 288 289 289 286 282 279 280 283 285 283 282 281 281 279 278 276 273 269 264 259 258 258 258 260 262 264 265 266 266 266 264 263 262 262 261 260 260 259 259 259 259 259 259
268 267 266 266 265 266 266 267 270 273 273 272 272 272 273 272 273 275 276 277 276 275 275 277 279 282 284 287 289 291 291 286 286 289 289 284 278 278 284 285 281 279 280 280 279 278 276 274 272 266 260 258 258 258 261 264 266 267 268 271 272 270 268 266 264 263 263 262 261 260 260 260 260 261
268 267 266 265 265 266 266 268 270 272 273 272 272 272 272 272 272 274 275 276 276 275 275 276 278 281 284 286 288 291 290 287 287 290 291 287 280 280 285 283 276 276 279 280 280 279 276 275 273 270 267 264 260 258 262 267 268 268 270 272 273 273 272 270 268 267 266 265 263 262 261 261 261 261
271 269 268 267 266 266 266 267 268 270 271 271 272 272 272 271 271 272 274 274 274 274 275 276 279 282 284 286 288 289 289 288 290 292 290 287 284 284 283 275 268 272 278 282 283 279 276 275 275 278 278 270 259 257 266 273 275 274 275 276 276 276 276 274 272 271 269 268 266 265 264 263 262 262
277 274 271 269 268 267 267 267 268 269 270 270 271 271 271 271 271 272 272 272 272 273 275 277 280 282 284 285 287 288 289 291 292 291 287 287 288 285 275 265 263 270 278 282 283 280 279 277 278 283 281 270 262 266 274 279 280 280 281 281 280 280 279 277 275 273 271 270 268 267 266 265 264 263
281 278 276 273 271 270 269 269 268 268 269 269 269 270 270 270 271 270 270 271 272 273 276 278 279 281 282 284 286 288 291 292 292 289 284 284 286 278 264 261 264 273 282 285 284 283 283 281 278 278 275 269 269 274 278 280 281 283 286 287 287 285 283 280 277 273 270 268 266 265 264 264 264 263
283 280 277 275 274 273 272 271 269 268 268 268 269 269 270 270 270 269 270 271 272 274 276 277 278 280 282 285 288 290 291 290 290 288 282 280 280 270 260 261 267 275 283 287 287 286 285 283 278 273 271 269 270 273 275 277 280 284 288 291 293 291 288 285 280 276 271 268 265 263 261 261 262 263
283 281 278 276 276 275 274 273 271 269 268 267 267 268 268 268 269 269 269 271 272 274 275 276 277 280 283 287 290 290 290 288 288 287 283 278 275 268 263 264 268 273 278 282 286 289 289 288 285 279 275 273 273 274 276 279 281 285 288 291 294 293 291 289 285 280 275 271 268 266 263 262 261 262
282 280 278 277 277 276 275 273 272 270 269 267 266 266 266 267 268 269 270 272 273 274 275 277 279 282 286 289 291 290 289 288 288 287 284 280 275 271 268 266 266 270 273 276 281 286 290 291 291 289 286 283 282 282 283 285 286 289 291 293 295 295 294 292 289 284 279 274 272 270 268 267 265 264
280 278 277 277 276 275 274 273 272 271 269 268 266 266 267 267 268 270 271 272 274 275 277 278 281 285 288 289 290 289 289 289 289 288 285 281 276 274 274 272 267 266 268 271 275 281 286 289 291 292 293 292 291 289 288 289 290 293 295 297 298 298 297 296 293 289 284 279 275 272 271 270 269 268
281 278 276 275 274 273 272 272 271 271 270 269 267 267 267 268 269 270 272 273 275 277 278 280 283 286 288 288 289 289 287 286 287 286 284 282 278 276 278 277 272 269 268 269 273 277 282 287 291 292 294 296 296 295 294 294 294 295 297 298 299 300 300 298 296 292 287 282 279 276 273 272 272 272
284 280 277 275 273 271 270 269 269 269 269 269 269 269 269 270 271 273 274 276 278 279 281 282 284 285 286 287 290 290 287 285 284 282 281 281 279 278 279 279 277 274 273 273 276 279 283 287 291 293 295 297 298 298 298 297 297 297 298 299 300 300 300 299 297 294 289 285 282 280 277 274 273 273
288 284 280 276 273 271 270 269 269 269 270 271 271 271 271 272 274 275 277 278 280 282 283 283 284 284 284 286 289 291 290 288 286 284 282 280 280 280 280 281 281 281 281 281 282 284 286 289 292 294 296 298 299 299 299 299 298 299 299 299 300 300 300 299 298 295 292 288 285 283 281 278 275 273
292 288 283 279 276 273 271 269 269 269 270 270 271 271 272 273 274 276 278 280 282 283 284 285 285 284 284 286 289 292 292 292 290 289 288 286 285 285 285 286 287 287 287 287 287 288 289 291 293 295 297 298 299 299 298 298 299 299 300 300 300 300 299 298 297 295 292 289 286 284 283 281 279 277
293 290 287 282 279 276 274 272 271 270 270 271 271 271 272 273 275 277 279 281 282 284 285 286 286 286 286 288 291 293 294 294 294 293 292 292 291 291 291 291 291 291 291 290 290 290 290 291 293 295 296 297 297 297 297 297 298 299 300 300 300 299 298 297 295 293 291 288 285 284 283 282 281 280
292 291 288 285 282 278 276 274 273 273 272 272 272 272 273 274 276 278 279 280 282 283 284 286 287 288 291 293 295 297 297 297 296 296 295 295 294 294 294 293 293 293 292 291 291 290 290 291 292 293 293 294 294 295 295 296 297 299 300 299 298 297 297 296 294 293 291 288 285 283 282 282 281 280
292 290 289 287 284 281 278 276 275 274 273 273 273 273 273 273 275 276 278 281 283 286 288 290 292 294 296 297 298 299 299 299 298 297 296 295 294 294 293 292 292 291 291 291 290 290 290 290 291 291 291 291 292 293 294 295 296 297 298 297 296 296 295 294 293 292 290 288 285 284 282 281 280 280
292 290 288 287 285 283 280 279 278 277 277 276 276 277 277 279 281 283 286 289 291 293 294 295 296 297 298 298 297 297 297 297 296 296 295 294 293 292 291 290 290 289 289 289 289 289 290 290 290 290 290 291 292 292 293 293 294 296 296 295 294 294 293 293 292 290 289 287 285 284 282 281 280 280
292 290 287 286 285 283 281 280 280 280 280 280 279 280 281 284 287 290 293 295 295 295 296 296 297 297 297 296 295 295 294 293 292 291 291 290 289 288 288 287 287 287 288 288 288 288 288 289 289 290 290 291 292 292 292 293 293 294 294 293 292 292 292 291 290 289 288 286 285 284 283 282 281 280
292 290 287 285 284 283 282 281 281 281 280 279 279 278 279 280 283 286 290 291 292 292 293 294 295 295 295 295 295 294 293 291 289 288 287 287 286 286 286 286 286 286 287 287 287 287 288 289 289 289 290 290 291 291 292 292 292 292 291 290 290 290 290 290 289 288 287 286 285 284 284 283 282 281
289 287 285 283 283 282 281 280 280 279 278 276 275 275 276 277 279 283 285 287 288 289 290 291 292 293 294 294 294 294 292 289 287 286 285 285 285 286 286 286 286 286 286 286 287 287 288 288 289 289 289 290 291 291 291 292 292 291 291 290 290 290 289 289 289 288 287 287 287 286 285 284 283 281
285 283 282 281 280 279 278 278 278 277 276 275 274 275 276 277 279 281 283 284 284 285 287 288 289 290 291 292 293 292 290 288 286 284 284 284 284 285 285 285 285 286 286 286 287 288 288 289 289 290 290 291 291 291 292 293 293 293 292 292 291 291 290 290 289 289 289 289 288 288 286 285 283 281
280 280 279 279 279 279 279 279 278 278 277 277 277 278 278 279 280 281 282 282 283 284 284 285 285 286 287 288 290 290 288 286 285 284 283 283 283 283 284 284 285 286 287 287 288 289 290 290 290 291 291 291 291 292 293 293 294 293 293 294 294 293 292 291 290 290 290 290 289 288 286 284 282 280
278 277 278 278 279 279 279 279 279 279 280 280 280 281 281 281 281 282 282 282 283 284 284 285 285 285 286 287 287 286 285 284 284 284 284 284 284 284 284 285 286 286 287 288 289 290 290 290 291 291 291 292 292 292 292 293 294 294 296 296 296 295 294 294 293 292 292 291 289 287 285 282 280 278
278 278 279 279 280 280 280 280 281 282 283 284 284 284 284 284 284 284 283 283 283 283 284 285 286 287 287 288 288 287 285 285 284 284 284 284 284 285 285 286 286 287 288 288 289 289 289 289 290 290 291 292 292 292 292 293 293 295 296 297 297 296 296 295 295 294 292 289 287 284 281 279 277 275
279 280 280 280 280 281 282 283 284 285 285 285 286 286 285 285 285 284 284 284 284 284 284 285 286 287 287 288 288 287 287 287 286 286 285 285 285 286 286 286 287 287 288 288 288 288 288 289 289 290 290 291 291 291 292 292 293 295 296 296 296 295 295 295 294 293 290 287 284 281 279 277 275 273
280 280 280 280 281 282 282 283 283 284 284 285 285 285 285 285 285 284 284 284 284 285 285 285 286 286 286 286 286 286 286 286 286 285 285 286 286 286 286 286 287 287 287 287 287 288 289 289 290 290 290 290 290 291 292 293 294 295 296 296 295 295 295 294 293 291 288 285 282 280 278 277 275 273
281 281 282 282 283 283 283 283 283 283 284 284 284 285 285 284 285 285 285 286 286 286 286 285 285 284 284 284 284 285 285 285 285 285 285 286 286 286 286 287 287 287 287 287 288 289 289 289 289 289 289 290 291 292 294 295 296 297 297 297 296 295 296 295 293 290 287 283 281 279 279 278 277 275
280 281 281 282 283 283 283 283 283 283 283 284 284 284 284 284 284 285 286 286 286 286 286 285 284 284 284 284 285 285 285 285 285 286 286 286 286 286 286 286 287 287 287 288 288 288 288 288 288 288 289 291 293 295 296 297 298 299 299 299 299 299 300 298 295 291 287 284 282 281 280 279 277 274
280 280 280 282 283 283 283 284 284 284 283 283 283 283 283 283 284 285 286 286 286 286 286 286 285 285 286 286 287 287 286 286 286 286 286 286 285 285 286 286 286 286 287 287 287 286 286 287 287 288 290 292 295 296 298 298 299 300 300 300 301 303 303 300 296 293 290 287 285 283 281 278 275 273
280 280 281 281 282 282 283 283 283 283 283 283 282 283 283 284 285 285 285 286 286 286 285 285 285 286 286 286 286 285 285 285 284 284 284 284 284 284 284 284 285 285 285 285 284 284 284 285 287 289 291 293 295 297 298 299 299 299 300 301 303 303 302 298 295 294 292 290 287 285 281 277 274 272
279 279 279 279 280 280 281 281 281 281 281 281 282 282 283 283 283 283 284 284 283 283 283 283 284 284 284 283 283 282 282 282 281 281 281 281 281 282 282 282 283 283 283 282 282 282 283 285 287 289 291 293 295 297 298 299 299 298 299 301 303 302 299 297 295 294 293 291 289 287 283 279 275 271
277 277 277 277 277 278 278 278 279 279 280 280 281 281 281 281 281 282 282 282 281 281 281 282 283 283 283 282 282 282 282 282 281 280 280 280 281 281 281 281 281 281 280 280 280 281 283 285 287 289 291 293 295 296 296 297 297 298 298 300 301 300 298 296 295 295 294 292 291 289 285 281 276 272
278 278 278 278 278 278 279 279 280 281 281 282 282 283 283 283 284 284 284 284 284 285 285 286 286 286 286 286 286 286 286 285 284 282 282 282 282 282 282 281 280 279 279 279 279 281 283 285 287 289 291 292 294 294 295 295 296 297 298 299 300 299 297 295 295 295 294 293 292 290 286 282 278 274
278 279 279 280 280 280 280 280 281 281 282 283 283 284 285 285 286 286 287 287 288 289 290 290 291 291 291 291 291 291 290 289 288 287 287 286 285 284 282 280 279 279 278 278 279 281 283 285 287 289 291 291 292 293 293 294 294 295 297 299 300 299 297 295 295 295 295 294 293 290 287 283 279 276
277 278 278 279 279 280 280 280 280 280 281 282 282 283 284 284 285 286 287 288 289 290 291 292 292 293 294 294 294 293 293 293 292 292 292 291 288 285 282 280 279 279 279 279 280 281 283 285 286 288 289 290 291 292 292 292 292 294 296 298 299 298 297 296 296 296 295 294 293 291 288 284 281 277
275 276 276 277 277 278 278 278 279 279 279 280 280 281 282 283 284 284 285 286 287 289 289 290 291 292 293 293 293 294 294 295 295 294 293 291 288 285 283 282 281 280 280 280 281 282 283 284 286 287 288 290 291 291 292 291 292 293 295 296 297 297 297 296 296 296 295 294 293 291 289 286 283 279
273 274 274 275 275 276 276 276 277 277 277 278 278 279 280 281 282 283 283 284 285 286 286 287 288 289 290 291 292 294 294 295 295 294 292 289 286 284 282 281 281 280 281 281 281 282 283 284 285 286 288 289 290 291 292 292 292 293 294 295 296 296 296 296 295 294 294 294 293 291 289 287 284 282
271 272 272 273 273 274 274 274 274 275 275 276 276 277 278 279 280 281 281 282 282 283 283 284 286 287 289 290 292 293 294 294 293 292 289 286 284 282 281 281 281 281 281 280 281 282 284 285 286 286 287 288 290 291 292 292 292 293 293 294 294 295 295 295 294 293 292 293 292 291 289 287 286 284
270 270 270 270 270 271 272 273 273 274 274 275 275 276 276 277 278 278 279 279 280 280 282 283 284 286 287 288 290 291 292 293 292 290 288 286 285 284 284 284 283 282 280 281 282 285 286 286 285 285 286 287 289 291 292 292 292 292 292 292 293 293 293 293 291 291 291 291 291 290 289 288 287 285
269 268 269 269 269 270 271 272 273 274 274 274 275 275 276 276 276 276 276 277 278 279 281 282 284 285 286 287 288 289 289 289 289 288 287 287 288 289 289 286 283 281 281 282 285 286 286 284 283 284 286 288 289 290 291 291 291 291 290 290 290 291 291 290 289 289 289 289 289 289 288 288 287 286
269 269 269 269 269 269 269 270 271 272 272 273 274 275 275 275 275 275 275 276 277 278 280 281 283 284 285 286 287 287 287 287 287 288 289 290 291 290 286 283 280 280 282 284 285 286 284 282 282 284 286 287 288 289 289 289 289 288 288 288 288 288 288 288 287 288 288 288 288 287 286 286 285 284
269 269 268 268 268 268 268 269 269 270 271 272 273 273 274 274 274 274 274 275 277 279 280 282 283 284 284 285 285 286 286 286 287 287 289 289 287 283 280 278 279 280 282 283 284 284 282 280 281 283 285 286 286 287 287 286 286 285 285 286 286 286 286 286 286 287 288 288 287 286 285 284 284 282
268 269 268 268 267 267 268 268 269 269 270 270 270 271 271 272 272 272 273 275 277 279 280 281 282 282 282 282 282 282 282 282 283 284 284 282 279 277 277 278 279 280 281 282 282 281 279 279 280 283 284 284 284 284 284 284 283 283 283 283 284 284 284 284 284 285 287 287 287 285 284 284 284 283
267 268 268 267 267 266 266 267 267 268 268 268 269 269 269 270 270 272 273 275 276 277 278 278 278 277 277 277 277 277 277 278 279 279 277 275 275 276 277 278 278 279 280 280 279 277 276 277 280 281 282 281 281 281 281 281 280 280 280 280 281 281 281 282 282 283 284 285 284 284 285 285 285 284
Height
10639 10638 10638 10638 10639 10639 10640 10639 10639 10637 10636 10636 10637 10637 10637 10637 10637 10636 10635 10635 10634 10634 10634 10633 10633 10632 10631 10631 10631 10631 10631 10631 10630 10628 10627 10625 10624 10623 10622 10621 10620 10618 10617 10616 10615 10615 10615 10614 10614 10613 10613 10612 10611 10611 10612 10612 10611 10611 10610 10609 10608 10608 10607 10607 10607 10607 10607 10607 10607 10607 10607 10608 10608 10608
10634 10634 10634 10634 10634 10635 10635 10635 10634 10632 10631 10632 10632 10632 10633 10632 10632 10631 10631 10630 10630 10629 10629 10628 10627 10626 10626 10626 10626 10626 10626 10625 10624 10622 10621 10619 10619 10618 10617 10615 10614 10613 10611 10610 10610 10610 10609 10608 10607 10607 10606 10605 10605 10606 10607 10607 10606 10605 10604 10602 10601 10600 10599 10599 10599 10599 10599 10598 10598 10599 10599 10599 10599 10599
10628 10629 10629 10629 10629 10630 10630 10630 10628 10627 10626 10626 10627 10627 10628 10627 10627 10626 10626 10625 10625 10624 10623 10623 10622 10621 10620 10621 10621 10621 10620 10620 10619 10617 10615 10613 10613 10612 10611 10609 10608 10607 10606 10605 10605 10604 10603 10602 10601 10601 10600 10600 10601 10602 10602 10601 10599 10598 10597 10596 10595 10593 10592 10592 10591 10591 10591 10590 10590 10590 10590 10590 10590 10590
10622 10623 10623 10623 10624 10625 10625 10624 10623 10622 10621 10621 10621 10622 10622 10622 10622 10621 10621 10620 10619 10618 10618 10618 10617 10616 10615 10615 10616 10615 10615 10614 10613 10611 10609 10607 10606 10605 10604 10603 10603 10602 10602 10601 10600 10599 10598 10597 10596 10596 10596 10596 10597 10596 10595 10594 10593 10592 10591 10589 10588 10586 10585 10584 10583 10583 10582 10582 10582 10582 10581 10581 10581 10581
10617 10617 10617 10617 10618 10619 10619 10618 10617 10616 10616 10616 10616 10616 10616 10616 10616 10616 10615 10615 10614 10613 10613 10612 10612 10610 10610 10610 10610 10609 10608 10608 10607 10606 10604 10602 10600 10599 10598 10598 10598 10597 10597 10596 10595 10593 10592 10591 10591 10590 10591 10592 10592 10590 10588 10587 10586 10585 10584 10583 10581 10579 10578 10576 10575 10574 10573 10573 10572 10572 10572 10572 10571 10571
10611 10611 10611 10611 10611 10612 10613 10613 10612 10611 10611 10611 10611 10610 10610 10610 10610 10610 10610 10609 10608 10607 10607 10607 10606 10605 10605 10605 10604 10603 10602 10601 10600 10600 10599 10598 10596 10594 10593 10593 10593 10592 10591 10591 10589 10588 10587 10587 10586 10586 10586 10586 10585 10583 10582 10581 10580 10579 10577 10575 10573 10572 10570 10568 10566 10565 10564 10563 10562 10562 10561 10561 10561 10561
10605 10605 10605 10605 10605 10606 10606 10606 10606 10606 10606 10605 10605 10605 10604 10604 10604 10604 10604 10603 10602 10601 10600 10600 10600 10599 10599 10599 10598 10597 10595 10594 10593 10593 10593 10593 10591 10590 10589 10588 10588 10587 10586 10585 10584 10583 10582 10582 10581 10581 10580 10579 10578 10577 10576 10575 10574 10572 10570 10568 10566 10564 10562 10560 10558 10556 10554 10553 10552 10551 10551 10550 10550 10550
10598 10599 10599 10599 10600 10599 10599 10599 10599 10600 10600 10600 10599 10599 10598 10598 10597 10597 10597 10596 10596 10595 10594 10594 10594 10594 10594 10593 10592 10591 10589 10587 10587 10586 10586 10586 10586 10585 10584 10584 10583 10582 10581 10580 10579 10578 10577 10576 10575 10574 10573 10572 10571 10570 10569 10568 10566 10564 10562 10560 10558 10556 10554 10552 10549 10547 10546 10544 10543 10542 10541 10540 10540 10540
10592 10592 10592 10593 10593 10593 10593 10592 10592 10593 10593 10593 10593 10593 10592 10592 10591 10590 10590 10589 10589 10589 10589 10589 10588 10588 10588 10587 10585 10584 10582 10581 10580 10580 10580 10580 10580 10579 10579 10578 10577 10576 10575 10574 10573 10572 10570 10569 10567 10566 10566 10565 10564 10562 10561 10560 10558 10556 10554 10552 10550 10548 10546 10544 10541 10539 10537 10535 10534 10533 10532 10530 10529 10529
10588 10587 10586 10586 10586 10586 10586 10585 10585 10586 10586 10586 10586 10586 10586 10585 10585 10584 10583 10583 10583 10583 10583 10583 10581 10581 10581 10580 10579 10577 10576 10574 10573 10573 10573 10572 10572 10572 10572 10572 10571 10570 10569 10568 10567 10565 10563 10561 10559 10558 10557 10556 10556 10554 10553 10551 10549 10546 10544 10542 10540 10539 10537 10536 10534 10531 10529 10527 10525 10524 10523 10522 10520 10519
10583 10582 10581 10580 10579 10579 10579 10578 10578 10578 10578 10578 10579 10579 10579 10578 10578 10578 10577 10576 10576 10576 10577 10576 10575 10574 10573 10572 10572 10571 10570 10568 10567 10566 10566 10565 10565 10564 10564 10564 10563 10563 10562 10561 10560 10557 10555 10553 10551 10549 10548 10547 10547 10545 10544 10541 10539 10536 10534 10532 10531 10529 10528 10527 10525 10523 10521 10518 10516 10515 10514 10513 10512 10510
10578 10576 10575 10574 10573 10572 10572 10571 10571 10571 10570 10570 10570 10570 10571 10571 10571 10570 10570 10569 10569 10569 10569 10568 10568 10566 10565 10564 10564 10563 10563 10562 10561 10560 10559 10558 10558 10557 10556 10556 10555 10555 10555 10553 10551 10548 10546 10544 10542 10540 10539 10538 10537 10536 10534 10531 10529 10526 10524 10523 10522 10520 10519 10518 10516 10514 10512 10510 10508 10506 10505 10504 10503 10501
10572 10571 10570 10568 10567 10566 10565 10565 10564 10564 10564 10563 10563 10563 10562 10562 10562 10562 10562 10561 10560 10560 10560 10560 10560 10559 10558 10557 10557 10556 10555 10554 10554 10553 10553 10552 10551 10550 10549 10548 10547 10547 10546 10544 10541 10539 10537 10535 10533 10531 10529 10528 10527 10525 10524 10521 10519 10516 10514 10513 10512 10511 10510 10508 10507 10505 10503 10500 10498 10497 10495 10494 10493 10492
10566 10565 10564 10562 10561 10560 10559 10558 10558 10558 10557 10557 10556 10555 10555 10554 10554 10554 10554 10553 10552 10551 10551 10551 10551 10551 10550 10549 10549 10548 10547 10546 10545 10545 10545 10544 10543 10542 10541 10539 10538 10537 10536 10534 10532 10529 10527 10525 10523 10521 10519 10518 10517 10516 10514 10511 10509 10507 10505 10503 10502 10500 10499 10498 10497 10496 10494 10492 10489 10487 10486 10484 10483 10482
10559 10559 10558 10557 10556 10554 10553 10552 10552 10552 10551 10550 10550 10549 10548 10547 10547 10546 10546 10545 10544 10543 10543 10542 10541 10541 10541 10540 10540 10539 10538 10537 10536 10535 10535 10535 10534 10533 10531 10530 10528 10527 10526 10524 10522 10520 10518 10515 10514 10512 10510 10508 10507 10506 10504 10501 10498 10496 10494 10492 10491 10490 10488 10488 10487 10486 10484 10482 10480 10478 10476 10475 10473 10471
10551 10551 10551 10550 10550 10549 10548 10547 10546 10545 10545 10544 10543 10542 10541 10540 10539 10539 10538 10538 10537 10537 10536 10535 10534 10532 10532 10531 10530 10529 10528 10527 10526 10525 10525 10524 10523 10522 10521 10520 10518 10516 10515 10514 10512 10510 10508 10506 10505 10503 10501 10498 10496 10494 10493 10490 10487 10485 10482 10481 10480 10479 10478 10477 10476 10475 10474 10472 10470 10469 10467 10465 10463 10461
10541 10542 10542 10542 10542 10542 10541 10540 10539 10538 10537 10536 10536 10535 10534 10533 10532 10532 10531 10530 10530 10529 10528 10526 10525 10523 10522 10520 10519 10518 10517 10516 10516 10515 10514 10513 10512 10512 10510 10509 10508 10506 10505 10504 10502 10500 10497 10496 10495 10494 10491 10488 10485 10483 10481 10479 10476 10474 10471 10469 10468 10467 10466 10466 10465 10464 10462 10461 10459 10458 10456 10455 10453 10451
10532 10532 10533 10533 10534 10533 10533 10532 10531 10531 10530 10529 10528 10527 10525 10524 10524 10522 10522 10521 10519 10518 10517 10516 10514 10513 10512 10511 10509 10508 10507 10506 10505 10505 10504 10503 10502 10501 10500 10498 10498 10496 10494 10493 10491 10489 10487 10485 10483 10481 10479 10476 10474 10472 10469 10467 10465 10462 10460 10458 10457 10456 10455 10455 10454 10453 10451 10449 10447 10446 10444 10443 10442 10441
10524 10524 10524 10524 10524 10524 10524 10524 10523 10522 10521 10520 10520 10518 10515 10514 10513 10511 10510 10510 10508 10507 10506 10505 10505 10504 10502 10501 10500 10499 10498 10498 10496 10495 10495 10494 10492 10491 10490 10488 10487 10486 10484 10482 10481 10479 10477 10474 10472 10469 10466 10464 10462 10459 10457 10455 10452 10450 10449 10447 10446 10445 10445 10444 10442 10441 10439 10437 10435 10433 10432 10431 10430 10429
10515 10515 10515 10515 10515 10515 10515 10514 10514 10514 10513 10512 10511 10510 10508 10506 10505 10504 10503 10502 10501 10499 10498 10497 10496 10495 10494 10492 10491 10490 10489 10488 10487 10486 10485 10483 10482 10480 10479 10477 10476 10475 10473 10471 10469 10468 10466 10463 10461 10458 10454 10451 10449 10446 10444 10442 10439 10438 10437 10436 10436 10435 10434 10433 10430 10428 10426 10424 10422 10420 10419 10417 10416 10415
10507 10507 10507 10506 10506 10505 10505 10505 10505 10504 10504 10504 10503 10502 10501 10500 10499 10498 10497 10495 10494 10492 10491 10489 10488 10487 10485 10483 10482 10480 10479 10478 10476 10475 10474 10472 10470 10468 10467 10465 10464 10463 10462 10459 10457 10456 10454 10451 10450 10447 10443 10439 10436 10432 10430 10427 10425 10423 10423 10423 10424 10424 10423 10421 10418 10415 10413 10411 10408 10406 10404 10403 10402 10401
10501 10500 10499 10499 10498 10497 10497 10497 10497 10497 10496 10496 10495 10494 10493 10492 10491 10490 10488 10487 10485 10484 10483 10482 10480 10479 10477 10475 10473 10471 10470 10468 10466 10464 10463 10461 10459 10457 10455 10453 10452 10450 10449 10446 10444 10443 10441 10438 10436 10434 10432 10428 10423 10418 10415 10413 10409 10407 10408 10409 10410 10410 10409 10407 10405 10402 10400 10397 10394 10391 10388 10387 10387 10386
10493 10492 10491 10490 10489 10489 10489 10488 10488 10488 10488 10487 10486 10484 10484 10483 10482 10481 10479 10477 10475 10474 10473 10472 10471 10470 10469 10467 10465 10463 10460 10458 10456 10454 10452 10450 10449 10447 10444 10442 10439 10437 10435 10433 10430 10429 10427 10423 10421 10419 10418 10416 10411 10405 10401 10398 10394 10391 10392 10394 10395 10394 10392 10392 10390 10388 10386 10383 10379 10375 10372 10371 10371 10372
10483 10481 10480 10480 10479 10479 10479 10478 10477 10477 10477 10476 10475 10474 10473 10472 10471 10470 10468 10466 10464 10463 10461 10460 10459 10458 10458 10457 10456 10454 10452 10449 10447 10445 10443 10440 10437 10435 10433 10430 10428 10425 10423 10420 10418 10416 10413 10410 10407 10404 10402 10402 10400 10394 10389 10385 10381 10377 10377 10378 10378 10376 10374 10375 10374 10373 10371 10367 10364 10360 10357 10356 10357 10358
10470 10468 10468 10468 10467 10466 10467 10466 10466 10465 10463 10462 10461 10460 10460 10458 10457 10456 10454 10453 10452 10451 10449 10448 10446 10445 10444 10443 10443 10442 10441 10439 10437 10435 10432 10429 10426 10424 10421 10419 10416 10413 10411 10409 10406 10404 10400 10397 10394 10391 10389 10387 10385 10381 10377 10372 10368 10366 10365 10364 10362 10360 10359 10359 10359 10357 10355 10351 10348 10345 10344 10343 10343 10343
10459 10458 10455 10454 10454 10455 10455 10454 10453 10452 10450 10448 10446 10445 10444 10443 10442 10441 10440 10439 10439 10438 10437 10436 10435 10434 10432 10430 10429 10428 10428 10427 10425 10423 10420 10417 10415 10413 10410 10407 10405 10403 10400 10397 10393 10390 10388 10384 10381 10379 10377 10373 10370 10368 10365 10361 10357 10355 10355 10352 10348 10345 10345 10346 10346 10343 10340 10336 10333 10331 10331 10330 10329 10329
10449 10446 10442 10441 10443 10444 10444 10443 10441 10440 10438 10435 10433 10432 10430 10428 10426 10425 10425 10425 10425 10426 10425 10425 10423 10422 10420 10419 10418 10418 10417 10415 10413 10411 10408 10407 10405 10402 10398 10396 10394 10391 10388 10384 10381 10377 10375 10372 10369 10365 10362 10360 10357 10355 10352 10350 10346 10344 10343 10340 10336 10333 10333 10334 10333 10330 10326 10322 10319 10318 10318 10317 10316 10315
10438 10434 10429 10428 10430 10431 10431 10430 10428 10426 10424 10423 10421 10418 10416 10413 10412 10411 10411 10412 10412 10412 10412 10411 10410 10409 10408 10408 10408 10408 10407 10405 10402 10400 10398 10396 10394 10390 10387 10385 10382 10379 10375 10371 10368 10365 10362 10358 10354 10351 10347 10345 10344 10343 10341 10339 10335 10332 10331 10328 10323 10321 10321 10321 10320 10317 10312 10309 10307 10306 10306 10305 10304 10303
10429 10424 10417 10415 10417 10418 10417 10416 10414 10412 10410 10409 10407 10405 10402 10400 10399 10399 10399 10399 10399 10398 10397 10396 10395 10394 10395 10396 10397 10397 10395 10392 10390 10388 10387 10385 10382 10378 10375 10373 10369 10365 10362 10359 10356 10352 10348 10343 10340 10337 10334 10333 10332 10331 10330 10328 10323 10320 10318 10315 10312 10310 10309 10308 10305 10303 10300 10297 10296 10297 10296 10295 10292 10290
10416 10414 10409 10406 10405 10404 10403 10402 10399 10397 10396 10395 10393 10391 10389 10388 10388 10387 10386 10386 10384 10383 10381 10379 10378 10379 10381 10383 10384 10383 10381 10379 10378 10377 10375 10372 10369 10366 10364 10360 10357 10353 10350 10347 10343 10338 10333 10329 10326 10324 10323 10322 10321 10320 10319 10317 10313 10308 10306 10304 10303 10301 10298 10295 10292 10291 10289 10286 10287 10288 10286 10284 10281 10280
10401 10400 10399 10398 10395 10392 10391 10389 10387 10384 10381 10380 10378 10377 10376 10376 10376 10374 10373 10372 10370 10368 10365 10364 10364 10365 10368 10370 10370 10369 10368 10367 10366 10365 10362 10359 10357 10355 10352 10349 10345 10342 10338 10334 10329 10324 10320 10317 10315 10314 10315 10314 10313 10311 10309 10306 10303 10299 10295 10294 10295 10293 10289 10284 10282 10281 10279 10277 10277 10278 10276 10274 10272 10272
10387 10386 10386 10386 10384 10382 10380 10377 10373 10370 10368 10366 10364 10365 10365 10364 10363 10362 10361 10360 10357 10354 10352 10352 10353 10354 10356 10357 10357 10357 10356 10356 10354 10352 10350 10347 10346 10344 10341 10338 10334 10330 10325 10320 10315 10311 10308 10307 10306 10306 10306 10306 10305 10303 10299 10295 10292 10289 10286 10286 10286 10285 10281 10276 10273 10272 10270 10269 10269 10270 10267 10265 10265 10265
10373 10373 10373 10373 10372 10371 10368 10364 10360 10356 10355 10353 10352 10352 10352 10351 10350 10349 10348 10345 10342 10340 10339 10340 10341 10342 10342 10343 10344 10344 10343 10342 10341 10339 10337 10336 10334 10332 10329 10325 10322 10318 10313 10308 10304 10300 10298 10297 10297 10297 10298 10297 10296 10295 10291 10286 10281 10279 10279 10279 10278 10276 10273 10269 10266 10264 10262 10261 10261 10262 10260 10257 10257 10257
10357 10356 10356 10357 10356 10354 10351 10349 10346 10342 10338 10336 10336 10336 10335 10333 10333 10332 10330 10327 10324 10323 10324 10325 10326 10326 10327 10328 10328 10328 10327 10326 10325 10324 10324 10324 10323 10320 10316 10312 10309 10305 10302 10298 10294 10292 10290 10289 10288 10287 10289 10289 10288 10287 10284 10279 10273 10269 10270 10271 10271 10269 10265 10261 10259 10258 10255 10254 10254 10254 10253 10251 10250 10250
10343 10340 10338 10338 10338 10338 10335 10333 10331 10329 10324 10320 10319 10318 10318 10318 10316 10314 10313 10311 10309 10307 10307 10307 10307 10308 10310 10311 10311 10311 10310 10310 10310 10310 10311 10311 10310 10307 10303 10300 10297 10294 10291 10289 10286 10284 10284 10283 10280 10278 10279 10280 10281 10279 10277 10273 10267 10262 10261 10262 10263 10262 10258 10254 10252 10251 10250 10248 10247 10246 10246 10245 10244 10243
10329 10326 10324 10323 10322 10321 10320 10318 10317 10316 10313 10310 10307 10305 10305 10304 10303 10302 10300 10298 10296 10295 10294 10293 10292 10292 10294 10295 10295 10295 10295 10296 10297 10298 10299 10298 10296 10293 10291 10289 10287 10284 10282 10280 10279 10277 10276 10275 10273 10271 10270 10271 10271 10271 10270 10267 10262 10257 10255 10255 10255 10254 10251 10248 10246 10245 10244 10243 10241 10240 10240 10239 10239 10238
10315 10312 10311 10310 10309 10307 10305 10304 10304 10303 10302 10299 10297 10296 10293 10292 10292 10291 10290 10288 10287 10285 10284 10282 10281 10281 10282 10283 10284 10284 10284 10285 10287 10288 10288 10287 10285 10283 10281 10279 10277 10275 10273 10272 10271 10270 10269 10267 10265 10264 10263 10262 10262 10263 10262 10260 10256 10251 10249 10249 10248 10247 10245 10243 10241 10239 10238 10237 10236 10235 10234 10234 10234 10233
10302 10299 10298 10297 10296 10293 10291 10291 10291 10291 10290 10289 10288 10286 10284 10282 10282 10281 10280 10279 10278 10276 10274 10273 10273 10272 10272 10272 10273 10273 10274 10276 10277 10278 10278 10276 10275 10274 10272 10270 10268 10266 10264 10263 10262 10262 10261 10260 10258 10257 10256 10255 10254 10254 10254 10252 10249 10246 10244 10243 10242 10241 10239 10237 10236 10234 10233 10232 10231 10230 10229 10229 10229 10229
10290 10288 10286 10284 10281 10278 10277 10277 10278 10278 10278 10278 10277 10276 10275 10274 10273 10272 10270 10269 10267 10265 10264 10264 10264 10264 10263 10263 10263 10263 10263 10265 10266 10267 10267 10266 10265 10265 10263 10261 10259 10257 10255 10254 10254 10254 10254 10252 10250 10249 10249 10248 10247 10246 10245 10244 10243 10241 10238 10237 10236 10235 10234 10232 10230 10229 10228 10228 10227 10226 10225 10225 10225 10225
10274 10273 10272 10271 10269 10265 10263 10263 10264 10265 10265 10265 10265 10265 10266 10265 10264 10263 10260 10258 10256 10254 10254 10255 10256 10256 10256 10255 10255 10255 10254 10254 10255 10255 10256 10255 10255 10254 10253 10251 10249 10248 10246 10246 10246 10246 10246 10245 10243 10242 10242 10241 10240 10240 10238 10237 10236 10235 10233 10232 10230 10230 10229 10227 10226 10225 10224 10224 10223 10222 10222 10221 10221 10221
10256 10256 10258 10258 10257 10255 10253 10252 10253 10253 10252 10252 10252 10254 10255 10254 10253 10251 10249 10246 10245 10245 10246 10246 10247 10247 10247 10247 10247 10247 10246 10245 10245 10245 10245 10244 10244 10243 10242 10241 10240 10239 10238 10238 10239 10239 10238 10237 10236 10235 10235 10234 10234 10233 10232 10231 10230 10229 10228 10227 10226 10225 10224 10222 10221 10221 10221 10220 10220 10219 10219 10218 10218 10218
10239 10242 10245 10246 10245 10243 10243 10242 10242 10241 10240 10240 10240 10241 10242 10241 10241 10239 10237 10235 10234 10236 10238 10238 10238 10238 10237 10237 10237 10237 10237 10236 10235 10234 10234 10234 10234 10234 10233 10232 10231 10231 10231 10231 10231 10232 10231 10229 10229 10228 10228 10228 10227 10227 10226 10225 10225 10224 10223 10222 10221 10220 10219 10218 10217 10217 10217 10217 10216 10216 10216 10215 10215 10215
10225 10228 10232 10233 10232 10231 10230 10230 10230 10230 10229 10229 10229 10229 10229 10228 10228 10227 10225 10224 10225 10227 10229 10230 10230 10229 10228 10227 10228 10228 10227 10225 10224 10225 10225 10226 10226 10225 10224 10223 10223 10224 10224 10224 10224 10224 10223 10222 10221 10222 10222 10222 10221 10221 10220 10220 10220 10219 10218 10217 10216 10216 10215 10214 10213 10213 10213 10213 10213 10212 10212 10212 10212 10212
10213 10214 10217 10220 10221 10220 10219 10218 10218 10218 10218 10219 10218 10218 10217 10217 10216 10215 10215 10216 10218 10220 10220 10220 10220 10219 10218 10218 10219 10219 10218 10218 10218 10219 10219 10218 10217 10216 10215 10215 10216 10216 10216 10216 10216 10216 10215 10214 10215 10216 10216 10216 10215 10215 10215 10215 10215 10214 10213 10212 10212 10211 10211 10210 10209 10209 10209 10209 10209 10208 10208 10208 10208 10208
10203 10203 10205 10207 10209 10209 10208 10207 10207 10207 10207 10207 10207 10207 10206 10206 10206 10206 10208 10210 10212 10212 10212 10212 10211 10210 10210 10210 10211 10211 10212 10212 10212 10211 10210 10209 10208 10208 10207 10207 10208 10208 10208 10208 10207 10208 10208 10208 10208 10209 10210 10210 10210 10209 10210 10210 10210 10209 10209 10208 10208 10207 10206 10206 10205 10205 10206 10206 10205 10205 10205 10205 10205 10205